Retour au catalogue

STARLINK-6054

ActifCommunicationsVLEO
NORAD 56465·PAYLOAD·🇺🇸 United States

Lancé May 10, 2023 depuis Vandenberg Space Force Base

Loading…

Prochains Passages (prochaines 24 heures)

TLE

FraisSource: CelesTrak SupGP

Époque: Sep 15, 2026, 02:14 UTC

1 56465C 23064T   26258.09354167  .00066716  00000+0  55893-2 0  2584
2 56465  70.0017 346.7456 0003598 265.7220 198.0307 14.98308090    18

Suivez STARLINK-6054 en temps réel avec AllMySat

Download on the App Store